Location: The Saddle
(36.8333°N, 80.3417°W)
Time: 20:22:33
(UTC-05:00)

A-11 Canister half - Pass Details

Date: 09 December 2023
Orbit: 1512 x 1687 km, 47.2° (Epoch: 26 February)

Event Time Altitude Azimuth Distance (km) Brightness Sun altitude
Rises 07:34:26 0° 296° (WNW) 4,897 10.9 1.3°
Reaches altitude 10° 07:38:13 10° 285° (WNW) 3,925 10.5 1.9°
Maximum altitude 07:46:03 27° 233° (SW) 2,842 10.3 3.3°
Drops below altitude 10° 07:53:58 10° 181° (S) 3,939 11.7 4.6°
Sets 07:57:49 0° 170° (S) 4,916 12.4 5.2°
